Hit Tracker is now ESPN Home Run Tracker! Hit Tracker founder Greg Rybarczyk is now collaborating with the ESPN Stats & Information Group to continue tracking all MLB home runs, and helping baseball fans know "How Far It Really Went!™" Please credit any information on this site to ESPN Stats & Information Group. For more information and analysis on home runs, please contact founder Greg Rybarczyk. E-Mail ESPN Home Run Tracker
Main Page | Ballparks | Park Overlays | Glossary | Highlight Homers | Feedback | Bio | 3 Types of HR's | AAA Home Run Derby Last Updated: May 24, 2016, 4:49 am PST
If you want to know "How Far It Really Went!", then you've come to the right place! Welcome to the ESPN Home Run Tracker, where you can find accurate, transparently verifiable distances for every home run hit in MLB games. Please also check out the ESPN MLB Scoreboard throughout the 2016 season! Contact us at grybar@hittrackeronline.com.
Season:
Ballpark detail for Oriole Park at Camden Yards
Ballpark # of Home Runs HR per game Avg.
True
Distance
Avg.
Speed
Off
Bat
Avg.
Std.
Dist.
Oriole Park at Camden Yards 54 2.16 397.3 103.5 396.3

Scatter Plot of Home Runs Oriole Park at Camden Yards
 Overlay Ballpark:
Without range rings   With range rings

2016 Season Home Runs for Oriole Park at Camden Yards
Click headers to sort
Date Video Path Hitter Hitter
Team
Pitcher Pitcher
Team
INN ^ Ballpark Type/
Luck
True
Dist.
Speed
Off
Bat
Elev.
Angle
Horiz.
Angle
Apex Impact Due To: Std.
Dist.
#
Parks
Wind Temp. Alt.
04/07/16 Video View Mauer, Joe MIN Jimenez, Ubaldo BAL 1 Oriole Park ... JE 406 102.7 24.0 86.0 74 0 -1 0 407 9
04/08/16 Video View Longoria, Evan TB Tillman, Chris BAL 1 Oriole Park ... ND 435 111.1 27.8 115.0 92 8 -3 0 429 30
04/28/16 Video View Frazier, Todd CHW Wilson, Tyler BAL 1 Oriole Park ... PL 381 100.2 30.7 108.5 99 -2 -3 0 386 30
05/08/16 Video View Machado, Manny BAL Graveman, Kendall OAK 1 Oriole Park ... JE 400 103.3 24.0 80.9 80 -2 0 0 401 25
04/08/16 Video View Davis, Chris BAL Archer, Chris TB 2 Oriole Park ... PL 406 101.0 31.1 85.9 115 0 -2 0 408 18
04/10/16 Video View Machado, Manny BAL Odorizzi, Jake TB 2 Oriole Park ... PL 391 99.8 31.6 99.9 112 -1 -4 0 395 28
05/03/16 Video View Trumbo, Mark BAL Severino, Luis NYY 2 Oriole Park ... ND 405 105.6 32.7 117.0 110 7 -2 0 400 30
05/08/16 Video View Alvarez, Pedro BAL Graveman, Kendall OAK 2 Oriole Park ... ND 413 103.6 33.5 67.1 110 19 0 0 393 30
05/08/16 Video View Schoop, Jonathan BAL Graveman, Kendall OAK 2 Oriole Park ... JE 384 111.6 20.7 114.4 51 2 0 0 382 20
05/18/16 Video View Trumbo, Mark BAL Walker, Taijuan SEA 2 Oriole Park ... ND 408 109.6 25.8 115.7 79 -2 -1 0 411 30
05/18/16 Video View Wieters, Matt BAL Walker, Taijuan SEA 2 Oriole Park ... PL 362 97.3 31.4 62.9 87 2 -1 0 361 26
04/06/16 Video View Davis, Chris BAL Gibson, Kyle MIN 3 Oriole Park ... PL 421 105.2 26.0 90.0 106 -7 -2 0 432 28
04/28/16 Video View Trumbo, Mark BAL Danks, John CHW 3 Oriole Park ... PL 435 108.6 22.5 93.4 81 0 -1 0 436 29
04/28/16 Video View Davis, Chris BAL Danks, John CHW 3 Oriole Park ... JE 398 100.5 32.5 82.4 122 1 -4 0 399 15
05/07/16 Video View Davis, Chris BAL Hahn, Jesse OAK 3 Oriole Park ... PL 427 108.0 25.0 77.7 84 0 -1 0 427 29
05/08/16 Video View Trumbo, Mark BAL Graveman, Kendall OAK 3 Oriole Park ... PL 400 104.2 31.8 117.6 104 6 0 0 394 30
05/18/16 Video View Martin, Leonys SEA Tillman, Chris BAL 3 Oriole Park ... JE 377 105.6 24.3 62.9 62 0 -1 -1 378 29
04/19/16 Video View Machado, Manny BAL Stroman, Marcus TOR 4 Oriole Park ... PL 422 107.1 21.7 93.2 72 1 0 0 421 23
04/10/16 Video View Dickerson, Corey TB Worley, Vance BAL 4 Oriole Park ... PL 417 113.0 18.7 82.9 56 0 -1 0 417 25
04/30/16 Video View Lawrie, Brett CHW Gausman, Kevin BAL 4 Oriole Park ... PL 403 103.8 31.8 111.4 108 6 -2 0 399 30
04/30/16 Video View Alvarez, Pedro BAL Latos, Mat CHW 4 Oriole Park ... JE 390 103.9 22.6 100.6 63 -1 0 0 391 6
04/30/16 Video View Schoop, Jonathan BAL Latos, Mat CHW 4 Oriole Park ... PL 382 99.9 33.2 112.1 106 6 -2 0 378 30
05/01/16 Video View Lawrie, Brett CHW Jimenez, Ubaldo BAL 4 Oriole Park ... JE 409 102.7 24.2 87.4 77 0 -1 0 409 9
05/08/16 Video View Rickard, Joey BAL Dull, Ryan OAK 4 Oriole Park ... JE/L 367 95.5 32.9 108.2 100 5 0 0 362 3
05/12/16 Video View Saltalamacchia, Jarrod DET Jimenez, Ubaldo BAL 4 Oriole Park ... ND 385 104.8 28.1 55.4 76 2 0 0 383 30
05/15/16 Video View Kinsler, Ian DET Gausman, Kevin BAL 4 Oriole Park ... JE 379 101.8 25.6 112.0 65 4 -1 0 375 16
04/08/16 Video View Schoop, Jonathan BAL Archer, Chris TB 5 Oriole Park ... PL 428 105.1 26.0 95.3 91 3 -2 0 427 29
04/08/16 Video View Reimold, Nolan BAL Archer, Chris TB 5 Oriole Park ... JE 396 102.3 23.9 82.1 71 0 -1 0 397 12
04/08/16 Video View Machado, Manny BAL Archer, Chris TB 5 Oriole Park ... PL 400 107.2 25.3 113.0 73 1 -2 0 400 30
04/20/16 Video View Donaldson, Josh TOR Jimenez, Ubaldo BAL 5 Oriole Park ... JE 381 100.8 25.4 74.5 70 1 -1 0 380 13
05/03/16 Video View Trumbo, Mark BAL Severino, Luis NYY 5 Oriole Park ... PL 376 103.0 37.6 110.7 142 9 -4 0 370 29
05/15/16 Video View Machado, Manny BAL Fulmer, Michael DET 5 Oriole Park ... JE 400 104.4 22.4 82.9 63 -1 0 0 401 18
05/17/16 Video View Seager, Kyle SEA Matusz, Brian BAL 5 Oriole Park ... JE 393 100.8 27.0 78.6 86 -1 -1 0 395 25
04/06/16 Video View Plouffe, Trevor MIN Givens, Mychal BAL 6 Oriole Park ... PL 367 99.1 35.0 118.6 108 7 -4 0 364 30
04/07/16 Video View Machado, Manny BAL Hughes, Phil MIN 6 Oriole Park ... JE 373 98.3 28.0 108.2 78 2 -1 0 372 15
04/28/16 Video View Machado, Manny BAL Petricka, Jake CHW 6 Oriole Park ... PL 411 103.2 25.9 94.6 94 -3 -2 0 417 26
05/13/16 Video View Jones, Adam BAL Verlander, Justin DET 6 Oriole Park ... PL 413 103.8 24.4 95.5 79 0 0 0 413 21
05/14/16 Video View Cabrera, Miguel DET Wright, Mike BAL 6 Oriole Park ... ND 464 110.7 26.3 99.4 94 0 0 0 464 30
05/14/16 Video View Wieters, Matt BAL Sanchez, Anibal DET 6 Oriole Park ... ND 389 96.1 37.4 74.3 116 0 0 0 389 27
05/17/16 Video View Cruz, Nelson SEA Matusz, Brian BAL 6 Oriole Park ... PL 394 103.9 26.4 109.5 78 1 -1 0 394 30
05/19/16 Video View Lind, Adam SEA Wilson, Tyler BAL 6 Oriole Park ... JE 365 97.1 33.5 112.7 103 0 0 0 364 22
04/19/16 Video View Wieters, Matt BAL Stroman, Marcus TOR 7 Oriole Park ... JE/L 353 100.3 25.2 63.0 62 -2 -1 0 356 14
04/29/16 Video View Lawrie, Brett CHW Brach, Brad BAL 7 Oriole Park ... PL 377 100.4 29.6 110.7 92 -3 -3 0 383 30
04/29/16 Video View Reimold, Nolan BAL Rodon, Carlos CHW 7 Oriole Park ... JE/L 358 97.3 28.3 68.1 78 -2 -2 0 362 12
05/14/16 Video View Schoop, Jonathan BAL Sanchez, Anibal DET 7 Oriole Park ... PL 403 113.2 21.2 111.6 54 0 0 0 403 30
04/07/16 Video View Rickard, Joey BAL May, Trevor MIN 8 Oriole Park ... PL 399 99.1 30.1 96.9 100 5 -3 0 396 11
04/30/16 Video View Frazier, Todd CHW O'Day, Darren BAL 8 Oriole Park ... PL 420 103.4 27.2 93.9 97 0 -2 0 421 28
05/07/16 Video View Semien, Marcus OAK Matusz, Brian BAL 8 Oriole Park ... ND 411 104.4 28.8 106.6 96 1 -1 0 410 30
05/08/16 Video View Machado, Manny BAL Wendelken, J.B. OAK 8 Oriole Park ... PL 416 106.6 23.3 100.6 71 4 0 0 413 27
05/14/16 Video View Jones, Adam BAL Verhagen, Drew DET 8 Oriole Park ... JE 367 97.5 33.2 113.4 102 3 -2 0 365 22
05/14/16 Video View Schoop, Jonathan BAL Lowe, Mark DET 8 Oriole Park ... ND 424 114.9 22.1 110.4 65 2 -1 0 423 30
05/15/16 Video View Cabrera, Miguel DET O'Day, Darren BAL 8 Oriole Park ... JE 384 108.3 20.3 105.8 51 5 0 0 379 1
05/15/16 Video View Martinez, J.D. DET O'Day, Darren BAL 8 Oriole Park ... PL 413 99.7 32.1 98.7 111 20 -2 0 395 3
05/19/16 Video View Martin, Leonys SEA Bundy, Dylan BAL 9 Oriole Park ... JE/L 374 96.6 30.6 75.7 94 -1 0 0 374 11


About HitTracker | Contact Us
© 2006-2016 HitTrackerOnline